Content
SEND FEEDBACK

Daily
Averages
Monthly
Summary
Federated States of Micronesia

YAP, FEDERATED STATES OF MICRONESIA


Home > Oceania > Federated States of Micronesia
Elevation: 5 feet     Latitude: 09 29N     Longitude: 138 05E

WEATHER
 
SELECT A DAY
Number of Records: 166,694;   Date Range: 7/1/96 - 10/19/14
 
SHARE

PRINT THIS DATA

[ ← Previous Day ]
WEATHER ALMANAC - JANUARY 31, 2013
[ Next Day → ]
[ °C ]   °F
Weather ElementAverageHighLow
Temperature82.7 °F89.1 °F (1:59 pm)77.9 °F (6:56 am)
Dewpoint73.6 °F75.4 °F (9:54 am)72.1 °F (6:56 am)
Humidity73.5 %86 % (2:52 am)57 % (4:00 pm)
Barometer29.95 in30.00 in (10:52 pm)29.92 in (3:56 pm)
Wind Speed10.5 mph16.1 mph (12:52 pm)
Wind Gust21.9 mph (2:52 pm)
Weather ElementAverage
Visibility12 mi
Wind DirectionENE (53.3 °)

Weather ElementTotal
Precipitation---
Cooling Degree Days18.5 (Base 65)
Growing Degree Days33.5 (Base 50)
Averaged from 27 records on January 31, 2013
WEATHER CONDITIONS BREAKOUT
WIND DIRECTION BREAKOUT
WEATHER BY HOUR - JANUARY 31, 2013
[ °C ]   °F
Local TimeTemperatureDewpointHumidityBarometerVisibilityWind DirectionWind SpeedGust SpeedPrecipitationEventsConditions
1:50 AM78.3 °F73.2 °F84 %29.94 in12.0 miVariable4.6 mphMostly Cloudy
2:52 AM78.6 °F74.1 °F86 %29.94 in12.0 miVariable4.6 mphMostly Cloudy
3:52 AM79.2 °F74.5 °F86 %29.93 in12.0 miENE (70°)9.2 mphMostly Cloudy
4:00 AM79.0 °F74.0 °F82 %29.93 in12.0 miENE (70°)9.2 mphPartly Cloudy
4:54 AM79.0 °F73.4 °F83 %29.94 in12.0 miENE (70°)9.2 mphMostly Cloudy
5:52 AM79.0 °F72.9 °F81 %29.94 in12.0 miENE (60°)8.1 mphScattered Clouds
6:56 AM77.9 °F72.1 °F82 %29.96 in12.0 miVariable5.8 mphScattered Clouds
7:51 AM78.3 °F73.0 °F84 %29.94 in12.0 miVariable6.9 mphMostly Cloudy
8:50 AM82.9 °F75.2 °F77 %29.95 in12.0 miEast (100°)8.1 mphMostly Cloudy
9:54 AM85.6 °F75.4 °F71 %29.99 in12.0 miEast (80°)11.5 mphScattered Clouds
10:00 AM86.0 °F75.0 °F64 %29.99 in12.0 miEast (80°)11.5 mphScattered Clouds
10:59 AM86.7 °F74.8 °F68 %29.98 in12.0 miENE (70°)11.5 mphScattered Clouds
11:53 AM86.0 °F75.2 °F70 %29.96 in12.0 miENE (70°)12.7 mphScattered Clouds
12:52 PM87.3 °F73.9 °F64 %29.95 in12.0 miENE (60°)16.1 mphScattered Clouds
1:59 PM89.1 °F73.4 °F60 %29.94 in12.0 miENE (60°)15.0 mphScattered Clouds
2:52 PM87.6 °F74.1 °F64 %29.93 in12.0 miNE (50°)11.5 mph21.9 mphScattered Clouds
3:56 PM85.8 °F73.0 °F65 %29.92 in12.0 miENE (60°)13.8 mphMostly Cloudy
4:00 PM86.0 °F73.0 °F57 %29.92 in12.0 miENE (60°)13.8 mphMostly Cloudy
4:56 PM85.5 °F72.7 °F65 %29.93 in12.0 miNE (50°)13.8 mphMostly Cloudy
5:52 PM84.6 °F72.3 °F67 %29.94 in12.0 miNE (50°)11.5 mphMostly Cloudy
6:57 PM81.9 °F73.0 °F74 %29.95 in12.0 miNE (40°)9.2 mphMostly Cloudy
7:57 PM81.5 °F73.2 °F76 %29.96 in12.0 miNE (50°)8.1 mphMostly Cloudy
8:56 PM81.7 °F72.9 °F74 %29.98 in12.0 miENE (60°)9.2 mphMostly Cloudy
9:56 PM81.3 °F73.2 °F76 %29.99 in12.0 miNE (50°)11.5 mphMostly Cloudy
10:00 PM81.0 °F73.0 °F71 %29.99 in12.0 miNE (50°)11.5 mphScattered Clouds
10:52 PM81.3 °F73.4 °F77 %30.00 in12.0 miENE (70°)10.4 mphMostly Cloudy
11:54 PM81.3 °F73.2 °F76 %29.98 in12.0 miENE (60°)15.0 mphMostly Cloudy
Hourly data recorded from PTYA, located miles away from Yap, Federated States of Micronesia







STORIES FROM OUR PARTNERS